Savannah, GA

5:02 PM EDT on September 25, 2016 (GMT -0400)
Hunter Army Air Field

Weather History for KSVN - December, 2011

Change the Weather History Date:

Thursday, December 1, 2011

  Actual Average Record
Temperature  
Mean Temperature 49 °F -  
Max Temperature 61 °F 64 °F 80 °F (2006)
Min Temperature 37 °F 43 °F 32 °F (1999)
Degree Days  
Heating Degree Days 16    
Moisture  
Dew Point 37 °F    
Average Humidity 72    
Maximum Humidity 93    
Minimum Humidity 34    
Precipitation  
Precipitation 0.00 in - - ()
Sea Level Pressure  
Sea Level Pressure 30.26 in    
Wind  
Wind Speed 5 mph (North)    
Max Wind Speed 8 mph    
Max Gust Speed -    
Visibility 10 miles    
Events      
Averages and records for this station are not official NWS values.
T = Trace of Precipitation, MM = Missing Value Source: NWS Daily Summary

Daily Weather History Graph

Daily Weather History Graph

Search for Another Location

Airport or City:

Trip Planner

Search our weather history database for the weather conditions in past years. The results will help you decide how hot, cold, wet, or windy it might be!

Date:

Astronomy

Dec. 01, 2011 Rise Set
Actual Time 7:07 AM EST 5:19 PM EST
Civil Twilight 6:40 AM EST 5:46 PM EST
Nautical Twilight 6:10 AM EST 6:16 PM EST
Astronomical Twilight 5:40 AM EST 6:46 PM EST
Moon 12:06 PM EST (12/1) No Moon Set
Length of Visible Light 11h 06m
Length of Day
10h 12m
Waxing Crescent, 43% of the Moon is Illuminated
Dec 1
Waxing Crescent
Dec 2
First Quarter
Dec 10
Full
Dec 17
Last Quarter
Dec 24
New

Hourly Weather History & Observations

Time (EST) Temp. Windchill Dew Point Humidity Pressure Visibility Wind Dir Wind Speed Gust Speed Precip Events Conditions
12:55 AM 38.1 °F 33.7 °F 35.6 °F 91% 30.12 in 10.0 mi WNW 5.8 mph - N/A   Clear
1:55 AM 39.4 °F 36.1 °F 37.0 °F 91% 30.14 in 10.0 mi NNW 4.6 mph - N/A   Clear
2:55 AM 38.3 °F 33.9 °F 36.0 °F 91% 30.14 in 10.0 mi NW 5.8 mph - N/A   Clear
3:55 AM 37.6 °F 33.1 °F 35.6 °F 93% 30.16 in 10.0 mi NW 5.8 mph - N/A   Clear
4:55 AM 37.9 °F 34.4 °F 35.8 °F 92% 30.18 in 10.0 mi NNW 4.6 mph - N/A   Clear
5:55 AM 38.8 °F 36.5 °F 36.5 °F 91% 30.20 in 10.0 mi NNW 3.5 mph - N/A   Clear
6:55 AM 39.6 °F 36.3 °F 36.3 °F 88% 30.22 in 10.0 mi North 4.6 mph - N/A   Clear
7:55 AM 41.7 °F 39.8 °F 37.6 °F 85% 30.25 in 10.0 mi North 3.5 mph - N/A   Clear
8:55 AM 46.6 °F - 39.2 °F 75% 30.27 in 10.0 mi NE 5.8 mph - N/A   Clear
9:55 AM 52.7 °F - 39.2 °F 60% 30.29 in 10.0 mi NE 5.8 mph - N/A   Clear
10:55 AM 56.5 °F - 39.0 °F 52% 30.30 in 10.0 mi North 5.8 mph - N/A   Clear
11:55 AM 58.3 °F - 37.2 °F 45% 30.29 in 10.0 mi North 8.1 mph - N/A   Clear
12:55 PM 59.9 °F - 36.9 °F 42% 30.28 in 10.0 mi North 6.9 mph - N/A   Clear
1:55 PM 61.5 °F - 35.6 °F 38% 30.27 in 10.0 mi NW 6.9 mph - N/A   Clear
2:55 PM 61.3 °F - 34.3 °F 36% 30.27 in 10.0 mi NNW 6.9 mph - N/A   Clear
3:55 PM 61.2 °F - 32.4 °F 34% 30.27 in 10.0 mi NE 5.8 mph - N/A   Clear
4:55 PM 57.6 °F - 37.4 °F 47% 30.29 in 10.0 mi ENE 5.8 mph - N/A   Clear
5:55 PM 51.3 °F - 38.8 °F 63% 30.30 in 10.0 mi Calm Calm - N/A   Clear
6:55 PM 46.0 °F - 39.7 °F 79% 30.32 in 10.0 mi Calm Calm - N/A   Clear
7:55 PM 43.9 °F - 40.1 °F 87% 30.33 in 10.0 mi Calm Calm - N/A   Clear
8:55 PM 41.4 °F - 38.7 °F 90% 30.35 in 10.0 mi Calm Calm - N/A   Clear
9:55 PM 42.3 °F - 39.0 °F 88% 30.36 in 10.0 mi Calm Calm - N/A   Clear
10:55 PM 41.7 °F - 37.9 °F 86% 30.37 in 10.0 mi Calm Calm - N/A   Clear
11:55 PM 41.9 °F - 37.6 °F 85% 30.36 in 10.0 mi Calm Calm - N/A   Clear